• In Belarus
  • List of Countries
  • For 7 days
  • Water Temperature
  • Satellite Maps
  • Weather Map
  • Weather Widgets
  • user-avatar
    Login

    Hourly Weather Ilebo

    Today, 19 December, Wednesday

    Time Temperature Precipitation Wind Pressure Humidity
    00:00 +28°C° 0 mm 1 mps 722 mmHg 65%
    01:00 +27°C° 0 mm 1 mps 722 mmHg 65%
    02:00 +25°C° 0 mm 0 mps 722 mmHg 66%
    03:00 +24°C° 0 mm 0 mps 723 mmHg 68%
    04:00 +24°C° 0 mm 0 mps 723 mmHg 69%
    05:00 +25°C° 0 mm 0 mps 723 mmHg 66%
    06:00 +26°C° 0 mm 0 mps 724 mmHg 63%
    07:00 +29°C° 0 mm 1 mps 724 mmHg 57%
    08:00 +32°C° 0 mm 1 mps 724 mmHg 46%
    09:00 +34°C° 0 mm 1 mps 724 mmHg 35%
    10:00 +38°C° 0 mm 2 mps 724 mmHg 24%
    11:00 +39°C° 0 mm 2 mps 723 mmHg 21%
    12:00 +40°C° 0 mm 2 mps 723 mmHg 17%
    13:00 +41°C° 0 mm 2 mps 722 mmHg 13%
    14:00 +40°C° 0 mm 2 mps 721 mmHg 13%
    15:00 +40°C° 0 mm 2 mps 721 mmHg 12%
    16:00 +40°C° 0 mm 2 mps 720 mmHg 12%
    17:00 +36°C° 0 mm 1 mps 720 mmHg 15%
    18:00 +33°C° 0 mm 1 mps 720 mmHg 17%
    19:00 +31°C° 0 mm 1 mps 721 mmHg 20%
    20:00 +30°C° 0 mm 1 mps 721 mmHg 20%
    21:00 +29°C° 0 mm 1 mps 721 mmHg 21%
    22:00 +29°C° 0 mm 1 mps 722 mmHg 21%
    23:00 +28°C° 0 mm 1 mps 722 mmHg 22%

    Tomorrow, 20 December, Thursday

    Time Temperature Precipitation Wind Pressure Humidity
    00:00 +28°C° 0 mm 1 mps 722 mmHg 23%
    01:00 +27°C° 0 mm 1 mps 722 mmHg 23%
    02:00 +26°C° 0 mm 1 mps 722 mmHg 25%
    03:00 +26°C° 0 mm 1 mps 722 mmHg 26%
    04:00 +25°C° 0 mm 1 mps 722 mmHg 27%
    05:00 +26°C° 0 mm 1 mps 722 mmHg 27%
    06:00 +24°C° 0 mm 0 mps 723 mmHg 27%
    07:00 +25°C° 0 mm 0 mps 723 mmHg 27%
    08:00 +30°C° 0 mm 1 mps 723 mmHg 23%
    09:00 +33°C° 0 mm 1 mps 724 mmHg 19%
    10:00 +37°C° 0 mm 2 mps 724 mmHg 15%
    11:00 +39°C° 0 mm 2 mps 723 mmHg 14%
    12:00 +40°C° 0 mm 2 mps 722 mmHg 12%
    13:00 +42°C° 0 mm 1 mps 722 mmHg 11%
    14:00 +41°C° 0 mm 1 mps 721 mmHg 12%
    15:00 +41°C° 0 mm 1 mps 720 mmHg 12%
    16:00 +40°C° 0 mm 1 mps 720 mmHg 12%
    17:00 +36°C° 0 mm 1 mps 720 mmHg 15%
    18:00 +33°C° 0 mm 1 mps 720 mmHg 18%
    19:00 +29°C° 0 mm 0 mps 721 mmHg 20%
    20:00 +28°C° 0 mm 0 mps 721 mmHg 21%
    21:00 +27°C° 0 mm 0 mps 722 mmHg 21%
    22:00 +27°C° 0 mm 0 mps 722 mmHg 22%
    23:00 +26°C° 0 mm 0 mps 722 mmHg 25%

    Day after tomorrow, 21 December, Friday

    Time Temperature Precipitation Wind Pressure Humidity
    00:00 +25°C° 0 mm 0 mps 722 mmHg 28%
    01:00 +26°C° 0 mm 1 mps 722 mmHg 31%
    02:00 +26°C° 0 mm 1 mps 722 mmHg 31%
    03:00 +25°C° 0 mm 1 mps 722 mmHg 32%
    04:00 +25°C° 0 mm 1 mps 722 mmHg 32%
    05:00 +26°C° 0 mm 1 mps 722 mmHg 31%
    06:00 +26°C° 0 mm 1 mps 723 mmHg 30%
    07:00 +27°C° 0 mm 1 mps 724 mmHg 29%
    08:00 +30°C° 0 mm 1 mps 724 mmHg 24%
    09:00 +34°C° 0 mm 2 mps 724 mmHg 20%
    10:00 +37°C° 0 mm 2 mps 724 mmHg 15%
    11:00 +39°C° 0 mm 2 mps 723 mmHg 14%
    12:00 +40°C° 0 mm 2 mps 722 mmHg 13%
    13:00 +42°C° 0 mm 2 mps 721 mmHg 12%
    14:00 +41°C° 0 mm 1 mps 720 mmHg 12%
    15:00 +40°C° 0 mm 1 mps 720 mmHg 12%
    16:00 +40°C° 0 mm 1 mps 719 mmHg 12%
    17:00 +36°C° 0 mm 1 mps 719 mmHg 15%
    18:00 +33°C° 0 mm 1 mps 720 mmHg 18%
    19:00 +31°C° 0 mm 1 mps 720 mmHg 20%
    20:00 +30°C° 0 mm 1 mps 721 mmHg 21%
    21:00 +29°C° 0 mm 1 mps 721 mmHg 22%
    22:00 +29°C° 0 mm 1 mps 721 mmHg 22%
    23:00 +28°C° 0 mm 1 mps 721 mmHg 23%

    22 December, Saturday

    Time Temperature Precipitation Wind Pressure Humidity
    00:00 +27°C° 0 mm 1 mps 721 mmHg 25%
    01:00 +26°C° 0 mm 1 mps 721 mmHg 26%
    02:00 +26°C° 0 mm 1 mps 721 mmHg 28%
    03:00 +25°C° 0 mm 1 mps 721 mmHg 29%
    04:00 +25°C° 0 mm 1 mps 721 mmHg 31%
    05:00 +26°C° 0 mm 1 mps 722 mmHg 31%
    06:00 +26°C° 0 mm 1 mps 722 mmHg 30%
    07:00 +27°C° 0 mm 1 mps 723 mmHg 29%
    08:00 +30°C° 0 mm 1 mps 723 mmHg 25%
    09:00 +34°C° 0 mm 1 mps 723 mmHg 20%
    10:00 +37°C° 0 mm 1 mps 724 mmHg 16%
    11:00 +39°C° 0 mm 2 mps 722 mmHg 15%
    12:00 +40°C° 0 mm 2 mps 721 mmHg 14%
    13:00 +41°C° 0 mm 2 mps 720 mmHg 13%
    14:00 +41°C° 0 mm 2 mps 720 mmHg 14%
    15:00 +40°C° 0 mm 1 mps 719 mmHg 14%
    16:00 +39°C° 0 mm 1 mps 719 mmHg 15%
    17:00 +36°C° 0 mm 1 mps 719 mmHg 18%
    18:00 +33°C° 0 mm 1 mps 720 mmHg 21%
    19:00 +28°C° 0 mm 0 mps 720 mmHg 24%
    20:00 +28°C° 0 mm 0 mps 720 mmHg 26%
    21:00 +27°C° 0 mm 0 mps 721 mmHg 29%
    22:00 +26°C° 0 mm 0 mps 721 mmHg 32%
    23:00 +27°C° 0 mm 1 mps 721 mmHg 36%

    23 December, Sunday

    Time Temperature Precipitation Wind Pressure Humidity
    00:00 +27°C° 0 mm 1 mps 720 mmHg 40%
    01:00 +26°C° 0 mm 1 mps 720 mmHg 44%
    02:00 +26°C° 0 mm 1 mps 720 mmHg 47%
    03:00 +26°C° 0 mm 1 mps 721 mmHg 49%
    04:00 +25°C° 0 mm 1 mps 721 mmHg 52%
    05:00 +26°C° 0 mm 1 mps 721 mmHg 52%
    06:00 +27°C° 0 mm 1 mps 722 mmHg 51%
    07:00 +28°C° 0 mm 1 mps 723 mmHg 51%
    08:00 +31°C° 0 mm 1 mps 723 mmHg 44%
    09:00 +34°C° 0 mm 1 mps 723 mmHg 38%
    10:00 +36°C° 0 mm 1 mps 723 mmHg 31%
    11:00 +39°C° 0 mm 1 mps 722 mmHg 27%
    12:00 +41°C° 0 mm 1 mps 721 mmHg 22%
    13:00 +43°C° 0 mm 1 mps 720 mmHg 18%
    14:00 +41°C° 0 mm 1 mps 720 mmHg 19%
    15:00 +40°C° 0 mm 1 mps 719 mmHg 20%
    16:00 +37°C° 0 mm 1 mps 719 mmHg 21%
    17:00 +35°C° 0 mm 1 mps 719 mmHg 25%
    18:00 +33°C° 0 mm 1 mps 720 mmHg 29%
    19:00 +31°C° 0 mm 1 mps 720 mmHg 33%
    20:00 +31°C° 0 mm 1 mps 720 mmHg 35%
    21:00 +30°C° 0 mm 1 mps 721 mmHg 38%
    22:00 +29°C° 0 mm 1 mps 721 mmHg 41%
    23:00 +29°C° 0 mm 1 mps 721 mmHg 43%

    24 December, Monday

    Time Temperature Precipitation Wind Pressure Humidity
    00:00 +28°C° 0 mm 1 mps 720 mmHg 44%
    01:00 +28°C° 0 mm 1 mps 720 mmHg 46%
    02:00 +27°C° 0 mm 1 mps 720 mmHg 47%
    03:00 +27°C° 0 mm 1 mps 720 mmHg 49%
    04:00 +26°C° 0 mm 1 mps 721 mmHg 50%
    05:00 +27°C° 0 mm 1 mps 721 mmHg 47%
    06:00 +28°C° 0 mm 1 mps 722 mmHg 44%
    07:00 +29°C° 0 mm 1 mps 722 mmHg 41%
    08:00 +32°C° 0 mm 1 mps 723 mmHg 35%
    09:00 +35°C° 0 mm 1 mps 723 mmHg 28%
    10:00 +40°C° 0 mm 1 mps 723 mmHg 21%
    11:00 +41°C° 0 mm 1 mps 722 mmHg 20%
    12:00 +40°C° 0 mm 0 mps 721 mmHg 18%
    13:00 +41°C° 0 mm 0 mps 720 mmHg 16%
    14:00 +43°C° 0 mm 1 mps 720 mmHg 18%
    15:00 +41°C° 0 mm 1 mps 719 mmHg 19%
    16:00 +40°C° 0 mm 1 mps 719 mmHg 20%
    17:00 +37°C° 0 mm 1 mps 719 mmHg 24%
    18:00 +35°C° 0 mm 1 mps 719 mmHg 27%
    19:00 +32°C° 0 mm 1 mps 720 mmHg 31%
    20:00 +32°C° 0 mm 1 mps 720 mmHg 33%
    21:00 +31°C° 0 mm 1 mps 720 mmHg 36%
    22:00 +30°C° 0 mm 1 mps 720 mmHg 38%
    23:00 +29°C° 0 mm 1 mps 720 mmHg 40%
    Show more